Location: Newark
(48.8604°N, 2.3376°E)
Time: 10:14:27
(UTC+00:00)

Envisat - Pass Details

Date: 04 October 2021
Orbit: 764 x 766 km, 98.2° (Epoch: 26 October)

Event Time Altitude Azimuth Distance (km) Brightness Sun altitude
Rises 05:00:37 0° 15° (NNE) 3,244 6.5 -9.7°
Reaches altitude 10° 05:02:56 10° 17° (NNE) 2,313 5.8 -9.3°
Maximum altitude 05:08:02 74° 103° (ESE) 799 3.3 -8.5°
Drops below altitude 10° 05:13:06 10° 189° (S) 2,295 5.4 -7.7°
Sets 05:15:24 0° 191° (S) 3,216 6.1 -7.3°
